Time,TemperatureF,DewpointF,PressureIn,WindDirection,WindDirectionDegrees,WindSpeedMPH,WindSpeedGustMPH,Humidity,HourlyPrecipIn,Conditions,Clouds,dailyrainin,SoftwareType,DateUTC
2013-01-02 00:12:00,-999.0,-99.9,-100.00,SW,223,12.0,16.0,-999,-99.99,,,-99.99,,2013-01-02 05:12:00,
2013-01-02 00:23:00,-999.0,-99.9,-100.00,SW,227,13.0,17.0,-999,-99.99,,,-99.99,,2013-01-02 05:23:00,
2013-01-02 00:43:00,-999.0,-99.9,-100.00,SW,224,14.0,17.0,-999,-99.99,,,-99.99,,2013-01-02 05:43:00,
2013-01-02 00:53:00,-999.0,-99.9,-100.00,SW,223,15.0,18.0,-999,-99.99,,,-99.99,,2013-01-02 05:53:00,
2013-01-02 02:02:00,-999.0,-99.9,-100.00,SW,221,7.0,11.0,-999,-99.99,,,-99.99,,2013-01-02 07:02:00,
2013-01-02 03:02:00,-999.0,-99.9,-100.00,SW,219,8.0,10.0,-999,-99.99,,,-99.99,,2013-01-02 08:02:00,
2013-01-02 04:12:00,-999.0,-99.9,-100.00,WSW,245,13.0,16.0,-999,-99.99,,,-99.99,,2013-01-02 09:12:00,
2013-01-02 04:32:00,-999.0,-99.9,-100.00,WSW,249,9.0,14.0,-999,-99.99,,,-99.99,,2013-01-02 09:32:00,
2013-01-02 05:43:00,-999.0,-99.9,-100.00,East,95,8.0,11.0,-999,-99.99,,,-99.99,,2013-01-02 10:43:00,
2013-01-02 06:12:00,-999.0,-99.9,-100.00,ESE,103,6.0,7.0,-999,-99.99,,,-99.99,,2013-01-02 11:12:00,
2013-01-02 07:43:00,-999.0,-99.9,-100.00,ESE,103,8.0,9.0,-999,-99.99,,,-99.99,,2013-01-02 12:43:00,
2013-01-02 09:13:00,-999.0,-99.9,-100.00,East,87,10.0,13.0,-999,-99.99,,,-99.99,,2013-01-02 14:13:00,
2013-01-02 09:33:00,-999.0,-99.9,-100.00,East,92,11.0,14.0,-999,-99.99,,,-99.99,,2013-01-02 14:33:00,
2013-01-02 09:43:00,15.0,-99.9,30.06,East,97,10.0,13.0,-999,-99.99,,,-99.99,,2013-01-02 14:43:00,
2013-01-02 09:53:00,-999.0,-99.9,-100.00,East,90,9.0,13.0,-999,-99.99,,,-99.99,,2013-01-02 14:53:00,
2013-01-02 10:43:00,-999.0,-99.9,-100.00,East,91,8.0,10.0,-999,-99.99,,,-99.99,,2013-01-02 15:43:00,
2013-01-02 11:13:00,-999.0,-99.9,-100.00,East,87,8.0,10.0,-999,-99.99,,,-99.99,,2013-01-02 16:13:00,
2013-01-02 12:13:00,-999.0,-99.9,-100.00,ESE,110,5.0,12.0,-999,-99.99,,,-99.99,,2013-01-02 17:13:00,
2013-01-02 12:43:00,-999.0,-99.9,-100.00,ESE,115,6.0,9.0,-999,-99.99,,,-99.99,,2013-01-02 17:43:00,
2013-01-02 13:43:00,-999.0,-99.9,-100.00,ESE,114,7.0,11.0,-999,-99.99,,,-99.99,,2013-01-02 18:43:00,
2013-01-02 14:13:00,-999.0,-99.9,-100.00,SE,128,9.0,12.0,-999,-99.99,,,-99.99,,2013-01-02 19:13:00,
2013-01-02 14:23:00,-999.0,-99.9,-100.00,ESE,117,8.0,12.0,-999,-99.99,,,-99.99,,2013-01-02 19:23:00,
2013-01-02 15:12:00,-999.0,-99.9,-100.00,SE,137,8.0,12.0,-999,-99.99,,,-99.99,,2013-01-02 20:12:00,
2013-01-02 15:33:00,-999.0,-99.9,-100.00,ESE,117,6.0,12.0,-999,-99.99,,,-99.99,,2013-01-02 20:33:00,
2013-01-02 17:13:00,-999.0,-99.9,-100.00,ESE,121,6.0,10.0,-999,-99.99,,,-99.99,,2013-01-02 22:13:00,
2013-01-02 17:43:00,-999.0,-99.9,-100.00,ESE,104,7.0,9.0,-999,-99.99,,,-99.99,,2013-01-02 22:43:00,
2013-01-02 18:43:00,-999.0,-99.9,-100.00,ESE,116,7.0,11.0,-999,-99.99,,,-99.99,,2013-01-02 23:43:00,
2013-01-02 19:12:00,-999.0,-99.9,-100.00,ESE,118,11.0,15.0,-999,-99.99,,,-99.99,,2013-01-03 00:12:00,
2013-01-02 19:43:00,-999.0,-99.9,-100.00,ESE,107,10.0,13.0,-999,-99.99,,,-99.99,,2013-01-03 00:43:00,
2013-01-02 20:23:00,-999.0,-99.9,-100.00,ESE,107,7.0,10.0,-999,-99.99,,,-99.99,,2013-01-03 01:23:00,
2013-01-02 20:43:00,-999.0,-99.9,-100.00,ESE,109,8.0,12.0,-999,-99.99,,,-99.99,,2013-01-03 01:43:00,
2013-01-02 20:53:00,-999.0,-99.9,-100.00,ESE,109,8.0,12.0,-999,-99.99,,,-99.99,,2013-01-03 01:53:00,
2013-01-02 21:12:00,-999.0,-99.9,-100.00,ESE,116,9.0,12.0,-999,-99.99,,,-99.99,,2013-01-03 02:12:00,
2013-01-02 23:43:00,-999.0,-99.9,-100.00,ESE,108,7.0,13.0,-999,-99.99,,,-99.99,,2013-01-03 04:43:00,